{"data":{"norad_id":42810,"epoch":"2026-05-25T04:09:25.566048Z","epoch_age_seconds":53284,"freshness":"FRESH","line1":"1 42810U 17039H   26145.17321257 -.00000007  00000+0 -81035-5 0  9991","line2":"2 42810  86.4458 299.9861 0002069  91.1711 268.9727 14.43279823471795","mean_motion":14.43279823,"eccentricity":0.0002069,"inclination_deg":86.4458,"raan_deg":299.9861,"arg_perigee_deg":91.1711,"mean_anomaly_deg":268.9727,"bstar":-8.1035e-6,"rev_number":47179,"period_min":99.772752106159,"perigee_km":746.20812203332,"apogee_km":749.15678612342,"semimajor_km":7125.8194540784,"source":"CELESTRAK","updated_at":"2026-05-25T13:38:14.801244Z"}}